Regional Weather Roundup
Issued by NWS Sioux Falls, SD

Home | Current Version | Previous Version | Graphics & Text | Print | Product List | Glossary On
Versions: 1 2 3 4 5 6 7 8 9 10 11 12 13 14 15 16 17 18 19 20 21 22 23 24 25 26 27 28 29 30 31 32 33 34 35 36 37 38 39 40 41 42 43 44 45 46 47 48 49 50
000
ASUS43 KFSD 050602
RWRFSD

WEATHER ROUNDUP FOR SE SOUTH DAKOTA/SW MINNESOTA/NW IOWA
NATIONAL WEATHER SERVICE SIOUX FALLS SD
100 AM CDT SAT SEP 05 2015

NOTE: "FAIR" INDICATES FEW OR NO CLOUDS BELOW 12,000 FEET WITH NO
SIGNIFICANT WEATHER AND OR OBSTRUCTIONS TO VISIBILITY.


SDZ038>040-050-052>070-050700-
SOUTHEAST SOUTH DAKOTA

CITY           SKY/WX    TMP DP  RH WIND       PRES   REMARKS
BROOKINGS      MOCLDY    75  68  78 SE14      29.88S
CHAMBERLAIN    PTCLDY    71  68  90 SE7       29.78S
6HR MIN TEMP:  70; 6HR MAX TEMP:  83;

HURON          PTCLDY    75  71  87 SE10      29.79S
6HR MIN TEMP:  75; 6HR MAX TEMP:  83;

MADISON        FAIR      72  72 100 SE12      29.87S
MITCHELL       PTCLDY    75  71  87 SE7       29.80S
6HR MIN TEMP:  74; 6HR MAX TEMP:  86;

SIOUX FALLS    PTCLDY    77  68  73 S18G24    29.86S
6HR MIN TEMP:  76; 6HR MAX TEMP:  82;

WINNER         FAIR      76  62  62 SE6       29.79S
YANKTON        CLEAR     75  68  78 S10G18    29.82S
$$

MNZ071-072-080-081-089-090-097-098-050700-
SOUTHWEST MINNESOTA

CITY           SKY/WX    TMP DP  RH WIND       PRES   REMARKS
FAIRMONT       CLEAR     75  66  73 SE10      29.93S
JACKSON        MOCLDY    77  72  83 S8        29.95S
LUVERNE        CLOUDY    77  68  73 S9        29.90R
MARSHALL       CLOUDY    77  66  69 S13       29.89S
6HR MIN TEMP:  75; 6HR MAX TEMP:  79;

MONTEVIDEO     CLOUDY    75  72  88 S9        29.88S
PIPESTONE      PTCLDY    75  68  78 S10       29.90S
REDWOOD FALLS  CLOUDY    76  71  85 SE10      29.89S
TRACY          CLOUDY    77  71  83 S12       29.89F
WINDOM         PTCLDY    75  70  83 SE8       29.93S
WORTHINGTON    MOCLDY    73  66  78 S13       29.92S
$$

IAZ001>003-012>014-020>022-031-032-NEZ013-014-SDZ071-050700-
NORTHWEST IOWA

CITY           SKY/WX    TMP DP  RH WIND       PRES   REMARKS
ESTHERVILLE    CLEAR     74  70  87 S9        29.94S
SIOUX CITY     CLEAR     76  68  76 SE13      29.88S
6HR MIN TEMP:  75; 6HR MAX TEMP:  84;

SPENCER        PTCLDY    76  68  76 S13       29.93S
6HR MIN TEMP:  76; 6HR MAX TEMP:  82;

$$

ABBREVIATIONS USED IN REMARKS
   TC - TEMPERATURE IN CELSIUS
  WCI - WIND CHILL INDEX
   HX - HEAT INDEX
  VSB - VISIBILITY




USA.gov is the U.S. government's official web portal to all federal, state and local government web resources and services.